Skip Page Navigation
NASA JPL Caltech
NASA Logo - Jet Propulsion Laboratory + View the NASA Portal
+ Center for Near-Earth Object Studies
JPL Home Earth Solar System Stars & Galaxies Technology
JPL Solar System Dynamics
BODIES ORBITS EPHEMERIDES TOOLS PHYSICAL DATA DISCOVERY FAQ SITE MAP
JPL Small-Body Database Browser
Search: [ help ]  
216359 (2008 AX24)
Classification: Main-belt Asteroid          SPK-ID: 2216359
Ephemeris | Orbit Diagram | Orbital Elements | Mission Design | Physical Parameters | Discovery Circumstances | Close-Approach Data ]

[ show orbit diagram ]
Orbital Elements at Epoch 2459200.5 (2020-Dec-17.0) TDB
Reference: JPL 14 (heliocentric ecliptic J2000)
 Element Value Uncertainty (1-sigma)   Units 
e .0401925299214624 4.7286e-08  
a 2.890828695698508 2.3473e-08 au
q 2.774638976848823 1.2712e-07 au
i 2.713035238386699 4.6343e-06 deg
node 49.37092576962455 0.00011851 deg
peri 190.1468047972526 0.00014052 deg
M 125.3379112944896 7.5045e-05 deg
tp 2458575.454094189116
(2019-Apr-01.95409419)
0.00037484 TDB
period 1795.279048198173
4.92
2.1866e-05
5.987e-08
d
yr
n .2005259295825421 2.4423e-09 deg/d
Q 3.007018414548192 2.4416e-08 au
  Orbit Determination Parameters
   # obs. used (total)      280  
   data-arc span      8796 days (24.08 yr)  
   first obs. used      1996-10-06  
   last obs. used      2020-11-05  
   planetary ephem.      DE441  
   SB-pert. ephem.      SB441-N16  
   condition code      0  
   norm. resid. RMS      .55848  
   source      ORB  
   producer      Otto Matic  
   solution date      2021-Apr-13 23:54:30  

Additional Information
 Earth MOID = 1.76065 au 
 Jupiter MOID = 1.97292 au 
 T_jup = 3.288 
[ show covariance matrix ]

Ephemeris | Orbit Diagram | Orbital Elements | Mission Design | Physical Parameters | Discovery Circumstances | Close-Approach Data ]

Physical Parameter Table
Parameter Symbol Value Units Sigma Reference Notes
absolute magnitude H 16.62   n/a E2021B55  

216359 (2008 AX24)          Discovered 2008-Jan-10 by Mt. Lemmon Survey at Mount Lemmon
Reference: 20090607/Numbers.arcLast Updated: 2009-06-08

[ show close-approach data ]
Alternate Designations
 2008 AX24 = 1996 TQ25 
Ephemeris | Orbit Diagram | Orbital Elements | Mission Design | Physical Parameters | Discovery Circumstances | Close-Approach Data ]
ABOUT SSD CREDITS/AWARDS PRIVACY/COPYRIGHT GLOSSARY LINKS
FirstGov 2021-Jun-13 21:45 UT
(server date/time)  
NASA Home Page
Site Manager:   Ryan S. Park
Webmaster  Alan B. Chamberlin